Regional Weather Roundup
Issued by NWS Nashville, TN

Home | Current Version | Previous Version | Text Only | Print | Product List | Glossary On
Versions: 1 2 3 4 5 6 7 8 9 10 11 12 13 14 15 16 17 18 19 20 21 22 23 24 25 26 27 28 29 30 31 32 33 34 35 36 37 38 39 40 41 42 43 44 45 46 47 48 49 50
000
ASUS44 KOHX 050500
RWROHX
MIDDLE TENNESSEE HOURLY WEATHER ROUNDUP
NATIONAL WEATHER SERVICE NASHVILLE TN
1100 PM CST WED MAR 04 2015

NOTE: "FAIR" INDICATES FEW OR NO CLOUDS BELOW 12,000 FEET WITH
NO SIGNIFICANT WEATHER AND/OR OBSTRUCTIONS TO VISIBILITY.

* THESE REPORTS ARE NOT UNDER NWS QUALITY CONTROL AND MAY NOT
  REPORT WEATHER SUCH AS PRECIPITATION AND FOG.


TNZ005>011-023>034-057-059-062>066-078-080-050600
...NORTHERN MIDDLE TENNESSEE...

CITY           SKY/WX    TMP DP  RH WIND       PRES   REMARKS
CLARKSVILLE    LGT SNOW  21  19  92 N17       30.23S VSB 3/4 WCI   7
CROSSVILLE     LGT RAIN  35  32  88 NE15      30.01S WCI  25
NASHVILLE      FRZ DRZL  30  28  92 N14G21    30.15R FOG     WCI  19
SMYRNA         FRZ RAIN  30  30 100 N17G23    30.16R FOG     WCI  18
SPARTA         CLOUDY    34  34 100 NE7       30.04R WCI  28
$$
TNZ056-058-060-061-075>077-079-093>097-050600
...SOUTHERN MIDDLE TENNESSEE...

CITY           SKY/WX    TMP DP  RH WIND       PRES   REMARKS
COLUMBIA       CLOUDY   N/A N/A N/A N9        30.11S
MCMINNVILLE    CLOUDY    36  36 100 N14       30.03F WCI  27
SHELBYVILLE    CLOUDY    34  34 100 N17       30.09R WCI  23
TULLAHOMA      CLOUDY    34  34 100 N17       30.03R WCI  23
WINCHESTER     CLOUDY    37  36  93 N14       30.03R WCI  29
$$


...KEY TO REMARKS...
VSB - VISIBILITY IN MILES
WCI - WIND CHILL INDEX
HX  - HEAT INDEX



USA.gov is the U.S. government's official web portal to all federal, state and local government web resources and services.